This demonstration page uses our WeatherBlox Daily Observations layout. Learn more.

Hourly Observations for November 26, 2019

Temp ( °F °C ) Dew Point ( °F °C ) Humidity (%) Winds ( mph kmh ) Pressure ( in mb ) Visibility ( mi km ) Precip ( " mm )
12:15 am 00:15 Clear 29 -1.5 25 -3.9 84 84 ENE 8 13 29.83 1010 10 16.0934 0 0
12:35 am 00:35 Partly Cloudy 29 -1.4 26 -3.6 85 85 NE 6 9 29.83 1010 10 16.0934 0 0
12:55 am 00:55 Partly Cloudy 29 -1.9 25 -3.7 88 88 NE 8 13 29.82 1010 10 16.0934 0 0
1:15 am 01:15 Mostly Cloudy 30 -1.3 26 -3.5 85 85 NE 10 17 29.82 1010 10 16.0934 0 0
1:35 am 01:35 Partly Cloudy 29 -1.6 26 -3.5 87 87 NE 9 15 29.81 1009 10 16.0934 0 0
1:55 am 01:55 Partly Cloudy 27 -2.7 24 -4.2 90 90 NE 8 13 29.82 1010 10 16.0934 0 0
2:15 am 02:15 Mostly Cloudy 31 -0.7 28 -2.5 88 88 NE 9 15 29.8 1009 10 16.0934 0 0
2:35 am 02:35 Cloudy 32 0.1 28 -2 86 86 NE 14 22 29.78 1009 10 16.0934 0 0
2:55 am 02:55 Mostly Cloudy 32 0 28 -2.3 85 85 NE 12 19 29.79 1009 10 16.0934 0 0
3:15 am 03:15 Partly Cloudy 32 -0.2 27 -2.6 84 84 NE 13 20 29.79 1009 10 16.0934 0 0
3:35 am 03:35 Clear 31 -0.7 27 -2.6 87 87 ENE 14 22 29.77 1008 10 16.0934 0 0
3:55 am 03:55 Clear 31 -0.6 28 -2.4 88 88 ENE 16 26 29.74 1007 10 16.0934 0 0
4:15 am 04:15 Partly Cloudy 32 -0.2 28 -2 88 88 ENE 18 30 29.73 1007 10 16.0934 0 0
4:35 am 04:35 Mostly Cloudy 32 0 29 -1.7 88 88 ENE 21 33 29.69 1006 10 16.0934 0 0
4:55 am 04:55 Cloudy 32 0 29 -1.6 89 89 ENE 22 35 29.68 1005 10 16.0934 0 0
5:15 am 05:15 Mostly Cloudy 32 0.1 29 -1.5 89 89 ENE 18 30 29.69 1006 10 16.0934 0 0
5:35 am 05:35 Cloudy 33 0.3 29 -1.6 87 87 ENE 17 28 29.72 1006 10 16.0934 0 0
5:55 am 05:55 Cloudy 32 0.2 29 -1.6 88 88 ENE 18 30 29.72 1006 10 16.0934 0 0
6:15 am 06:15 Cloudy 32 0.1 29 -1.6 88 88 ENE 16 26 29.72 1007 10 16.0934 0 0
6:35 am 06:35 Cloudy 32 0 29 -1.5 90 90 ENE 13 20 29.75 1008 10 16.0934 0 0
6:55 am 06:55 Cloudy 32 0 29 -1.5 90 90 NE 15 24 29.75 1008 10 16.0934 0 0
7:15 am 07:15 Cloudy with Light Snow 32 0 30 -1.2 92 92 ENE 17 28 29.72 1007 4 6.43736 0 0
7:35 am 07:35 Windy with Snow Likely 32 0 30 -1.1 92 92 ENE 21 33 29.71 1006 5 8.0467 0 0
7:55 am 07:55 Cloudy with Light Snow 32 -0.2 30 -1 94 94 ENE 18 30 29.72 1006 3 4.82802 0 0
8:15 am 08:15 Cloudy with Light Snow 31 -0.5 30 -1 96 96 NE 18 30 29.72 1006 3 4.82802 0 0
8:35 am 08:35 Windy with Snow Likely 31 -0.6 30 -1 97 97 NE 20 31 29.7 1006 2.5 4.02335 0 0
8:55 am 08:55 Windy with Snow Likely 31 -0.5 31 -0.8 98 98 NE 22 35 29.69 1005 1.75 2.816345 0 0
9:15 am 09:15 Windy with Snow Likely 31 -0.5 31 -0.7 99 99 NE 23 37 29.68 1005 1.5 2.41401 0 0
9:35 am 09:35 Windy with Snow Likely 31 -0.5 31 -0.8 98 98 NE 26 43 29.67 1005 2.5 4.02335 0 0
9:55 am 09:55 Windy with Snow Likely 31 -0.5 31 -0.8 98 98 NE 22 35 29.67 1005 1.75 2.816345 0 0
10:15 am 10:15 Windy with Snow Likely 31 -0.4 31 -0.7 98 98 NE 22 35 29.68 1005 1.75 2.816345 0 0
10:35 am 10:35 Windy with Snow Likely 31 -0.5 31 -0.7 99 99 NE 23 37 29.67 1005 1.5 2.41401 0 0
10:55 am 10:55 Windy with Snow Likely 31 -0.5 31 -0.8 98 98 NE 23 37 29.66 1004 1 1.60934 0.01 0.254
11:15 am 11:15 Windy with Snow Likely 31 -0.5 31 -0.8 98 98 NE 24 39 29.65 1004 1.75 2.816345 0 0
11:35 am 11:35 Windy with Snow Likely 31 -0.5 31 -0.7 99 99 NE 22 35 29.63 1003 2 3.21868 0 0
11:55 am 11:55 Windy with Snow Likely 31 -0.5 30 -0.9 97 97 NE 29 46 29.62 1003 3 4.82802 0.01 0.254
12:15 pm 12:15 Windy with Snow Likely 31 -0.5 30 -1 96 96 NE 23 37 29.6 1002 4 6.43736 0 0
12:35 pm 12:35 Windy with Snow Likely 31 -0.5 30 -1.1 96 96 NE 25 41 29.58 1002 1.75 2.816345 0.01 0.254
12:55 pm 12:55 Windy with Snow Likely 31 -0.5 30 -1.1 96 96 NE 26 43 29.57 1001 2 3.21868 0.01 0.254
1:15 pm 13:15 Windy with Snow Likely 31 -0.5 30 -1 96 96 NNE 23 37 29.55 1001 1 1.60934 0.01 0.254
1:35 pm 13:35 Cloudy with Snow 31 -0.7 30 -1.1 97 97 NNE 23 37 29.55 1001 0.5 0.80467 0.01 0.254
1:55 pm 13:55 Windy with Snow Likely 31 -0.7 30 -1.1 97 97 NNE 23 37 29.55 1001 0.75 1.207005 0.01 0.254
2:15 pm 14:15 Cloudy with Snow 31 -0.7 30 -1 98 98 NNE 29 46 29.54 1000 0.5 0.80467 0 0
2:35 pm 14:35 Cloudy with Snow 31 -0.7 30 -1 98 98 NNE 18 30 29.55 1001 0.5 0.80467 0 0
2:55 pm 14:55 Cloudy with Snow 31 -0.6 31 -0.8 99 99 NNE 18 30 29.56 1001 0.25 0.402335 0.01 0.254
3:15 pm 15:15 Cloudy with Snow 31 -0.7 31 -0.8 99 99 NNE 23 37 29.57 1001 0.5 0.80467 0 0
3:35 pm 15:35 Cloudy with Snow 31 -0.7 31 -0.8 99 99 NNE 18 30 29.58 1002 0.5 0.80467 0.01 0.254
3:55 pm 15:55 Cloudy with Snow 31 -0.7 31 -0.8 99 99 N 21 33 29.6 1002 0.25 0.402335 0.02 0.508
4:15 pm 16:15 Cloudy 30 -0.9 30 -1 99 99 N 20 31 29.63 1003 N/A 0.01 0.254
4:35 pm 16:35 Cloudy 30 -1.2 30 -1.2 100 100 N 21 33 29.65 1004 N/A 0.02 0.508
4:55 pm 16:55 Cloudy 30 -1.3 30 -1.3 100 100 N 21 33 29.67 1005 N/A 0.03 0.762
5:15 pm 17:15 Cloudy 29 -1.4 29 -1.5 99 99 N 20 31 29.67 1005 N/A 0 0
5:35 pm 17:35 Cloudy 29 -1.5 29 -1.5 100 100 N 20 31 29.68 1005 N/A 0.01 0.254
5:55 pm 17:55 Cloudy 29 -1.5 29 -1.6 99 99 N 26 43 29.69 1005 N/A 0.01 0.254
6:15 pm 18:15 Cloudy 29 -1.7 29 -1.8 99 99 N 23 37 29.7 1006 N/A 0.01 0.254
6:35 pm 18:35 Cloudy 29 -1.8 28 -2 99 99 N 24 39 29.71 1006 N/A 0.01 0.254
6:55 pm 18:55 Cloudy 28 -2 28 -2.2 99 99 N 25 41 29.72 1007 N/A 0.01 0.254
7:15 pm 19:15 undefined 28 -2.1 28 -2.5 97 97 N 26 43 29.74 1007 N/A 0 0
7:35 pm 19:35 undefined 28 -2.1 28 -2.5 97 97 NNW 22 35 29.75 1008 N/A 0 0
7:55 pm 19:55 Cloudy 28 -2.1 28 -2.5 97 97 NNW 26 43 29.77 1008 N/A 0 0
8:15 pm 20:15 Cloudy 28 -2.1 27 -2.6 96 96 N 25 41 29.79 1009 N/A 0 0
8:35 pm 20:35 Cloudy 28 -2.3 27 -2.9 96 96 N 22 35 29.81 1009 N/A 0 0
8:55 pm 20:55 undefined 28 -2.3 27 -2.7 97 97 NNW 25 41 29.83 1010 N/A 0 0
9:15 pm 21:15 undefined 28 -2.3 27 -3 95 95 NNW 24 39 29.85 1011 N/A 0 0
9:35 pm 21:35 undefined 28 -2.5 26 -3.4 94 94 NNW 25 41 29.86 1011 N/A 0 0
9:55 pm 21:55 undefined 27 -2.8 25 -3.9 92 92 NNW 22 35 29.87 1012 N/A 0 0
10:15 pm 22:15 undefined 27 -2.7 25 -4 91 91 NNW 21 33 29.89 1012 N/A 0 0
10:35 pm 22:35 undefined 26 -3.1 24 -4.3 92 92 NNW 17 28 29.9 1013 N/A 0 0
10:55 pm 22:55 undefined 26 -3.2 24 -4.6 90 90 NW 18 30 29.91 1013 N/A 0 0
11:15 pm 23:15 undefined 26 -3.5 23 -5 89 89 NW 16 26 29.94 1014 N/A 0 0
11:35 pm 23:35 undefined 25 -3.7 23 -5 91 91 NW 21 33 29.96 1015 N/A 0 0
11:55 pm 23:55 undefined 25 -3.7 22 -5.3 89 89 NW 18 30 29.97 1015 N/A 0 0

Powered by AerisWeather